Theta_e
323 320 319 318 319 326 332 332 333 332 333 327 327 329 330 329 331 329 328 327 325 325 325 324 323 323 322 322 320 318 317 316 316 315 311 310 310 310 311 313 312 312 312 311
321 321 320 322 330 332 332 335 334 332 331 331 333 332 331 332 331 330 328 325 326 327 327 326 325 324 322 321 317 318 317 316 314 312 310 309 310 311 312 312 311 312 312 312
321 323 326 327 326 327 326 327 328 332 330 329 331 334 334 332 331 332 329 328 327 327 326 325 322 322 320 319 316 316 315 314 312 310 310 309 309 309 309 310 311 312 312 312
327 327 327 327 327 325 325 326 326 329 328 334 330 339 332 329 330 331 329 328 326 324 324 322 319 319 318 317 317 314 314 313 311 311 310 309 309 309 310 310 310 310 311 311
330 329 329 330 328 327 327 326 326 326 324 329 333 336 335 328 333 332 328 325 324 323 322 319 319 318 317 318 316 314 312 312 311 310 309 308 308 308 308 307 307 308 309 309
330 331 330 331 330 327 326 324 322 319 321 333 331 332 330 332 332 329 326 325 323 322 321 321 320 317 315 313 312 312 312 311 310 308 308 307 306 306 305 305 305 305 307 307
329 331 330 330 329 325 322 320 321 321 327 336 331 331 329 331 331 326 323 323 323 322 321 317 317 314 313 313 312 311 309 308 308 308 307 307 305 305 305 305 305 304 306 307
330 333 331 331 330 327 324 321 322 326 323 335 330 336 331 329 328 326 324 324 321 320 318 314 313 312 311 310 309 307 308 308 308 307 307 305 304 305 305 304 304 304 305 308
330 332 331 330 324 324 324 325 323 322 325 332 333 332 330 329 328 325 322 322 319 316 314 313 311 311 310 308 308 308 307 307 308 307 306 306 305 304 304 304 304 306 308 308
330 330 329 328 327 325 324 324 325 323 330 335 331 329 333 330 328 322 321 319 315 313 312 311 311 309 307 307 307 307 308 308 308 307 306 306 306 306 305 305 305 306 308 307
326 325 327 327 327 324 322 323 323 324 326 329 331 332 325 326 324 321 319 317 314 313 311 310 309 308 307 307 307 307 308 308 307 307 306 306 306 306 306 305 306 307 307 307
327 324 330 331 328 323 322 323 322 322 328 325 326 330 323 322 320 319 317 313 312 311 311 310 309 307 307 306 307 308 308 308 309 308 307 307 307 306 306 305 305 305 305 306
326 325 321 325 324 323 322 323 321 318 320 326 327 327 321 320 318 317 314 312 312 311 310 309 307 307 307 307 307 308 308 308 308 308 308 308 307 307 306 306 306 306 306 306
329 327 325 326 326 324 324 322 321 320 325 327 327 325 321 318 316 314 313 312 311 311 310 309 308 307 307 307 308 308 308 308 308 309 309 308 308 309 309 309 308 306 306 307
327 330 328 325 324 324 323 323 322 323 324 326 324 322 319 317 315 313 312 311 311 310 310 309 309 308 307 308 309 309 308 308 308 310 310 309 309 309 309 308 307 308 306 306
324 326 329 329 324 324 324 321 320 320 320 320 321 321 318 317 314 312 312 311 311 310 310 310 309 307 308 308 309 310 308 309 309 309 309 309 309 308 307 309 311 309 308 308
326 325 326 330 328 328 325 326 324 322 321 319 319 317 317 314 313 312 312 311 311 310 310 310 309 308 308 308 308 309 310 309 309 310 309 308 309 307 308 311 310 310 309 308
328 327 327 328 327 331 325 324 322 322 322 319 320 317 314 313 312 312 312 312 311 310 310 309 308 308 308 308 308 309 309 308 309 310 309 307 309 310 311 311 310 310 309 309
324 324 325 327 329 326 327 327 323 323 321 319 318 315 313 313 312 312 312 311 311 311 309 308 308 308 309 308 309 310 308 309 309 311 309 310 310 311 312 311 308 308 308 308
325 325 327 328 329 330 327 325 322 322 323 318 317 316 314 314 311 311 312 311 311 310 309 308 308 309 309 310 311 310 308 309 310 311 311 310 310 311 311 311 311 309 310 310
327 326 329 328 329 328 324 322 320 320 318 316 316 316 315 314 314 313 311 311 311 310 309 309 309 310 310 310 310 310 309 310 312 310 310 311 308 307 307 311 311 310 310 311
328 328 328 327 326 328 322 321 321 319 317 315 315 315 315 314 313 312 311 311 311 310 310 310 309 310 311 310 310 310 309 310 311 312 310 310 310 309 307 303 309 310 310 310
327 325 323 324 323 322 320 319 318 317 316 315 315 315 314 314 313 312 311 311 311 310 310 310 310 311 311 310 310 310 311 310 312 309 309 309 309 311 312 305 302 306 309 309
325 323 322 323 324 321 320 319 319 317 315 314 314 315 314 313 312 312 313 312 310 309 310 309 311 312 311 311 311 310 310 312 312 311 312 311 311 311 311 311 307 304 303 301
325 323 320 321 321 321 320 319 318 316 314 314 314 314 314 313 312 313 313 312 311 310 310 310 311 311 311 310 310 310 311 312 313 311 310 311 311 312 313 313 312 309 305 304
324 325 322 320 321 320 320 319 318 317 315 313 314 314 314 314 312 312 312 311 311 311 311 310 311 311 312 311 310 310 311 312 312 311 311 311 311 312 312 312 313 312 308 304
Wind_Speed
7 3 5 12 8 5 5 4 6 6 7 18 19 17 10 8 13 12 14 13 13 10 8 6 5 0 4 3 10 10 10 12 12 13 22 23 20 16 13 11 12 12 13 11
4 7 12 4 10 14 6 3 5 16 24 22 15 11 6 10 8 11 15 13 12 8 6 1 3 3 4 3 6 7 11 13 16 22 25 24 20 15 14 15 13 12 13 12
9 13 5 8 6 7 3 3 2 14 17 20 24 9 5 5 7 8 10 9 8 6 5 1 1 2 5 3 6 11 12 14 18 24 23 22 24 21 17 15 14 12 13 13
5 7 11 9 6 6 8 5 7 15 8 5 9 5 3 0 2 12 9 11 13 6 4 2 4 5 3 5 6 4 10 17 22 21 22 21 20 17 15 14 13 11 11 11
2 5 8 9 3 5 2 2 5 4 7 6 6 5 2 4 3 6 9 12 10 5 6 2 8 2 2 3 4 9 14 17 18 23 22 20 18 16 16 17 16 12 12 12
2 2 4 2 2 7 1 9 9 5 5 5 8 4 3 2 6 6 12 13 8 5 5 3 3 3 3 2 6 13 18 21 22 25 21 22 21 17 18 17 14 13 11 11
5 6 5 6 7 7 12 8 4 5 5 2 4 7 3 4 6 9 17 13 7 6 4 7 6 3 6 9 13 18 22 17 17 19 19 23 22 20 16 15 15 12 10 7
5 8 6 6 1 2 5 6 5 2 3 4 5 3 2 1 13 13 14 10 11 7 5 10 7 6 7 13 17 20 14 17 18 21 21 19 19 18 15 17 15 9 7 6
4 4 4 5 7 4 4 3 2 4 5 5 1 1 3 8 9 15 13 12 10 12 10 7 5 7 12 15 14 15 15 16 19 25 20 16 19 22 19 15 12 9 6 10
5 1 4 5 9 11 6 2 5 4 2 3 2 1 1 8 9 10 13 13 16 16 11 5 5 10 13 14 12 10 14 17 19 22 19 18 15 16 17 15 12 8 11 11
3 4 7 6 4 3 6 5 5 5 3 4 4 2 5 6 7 9 14 13 21 16 9 5 7 11 10 9 9 12 14 17 18 21 22 20 17 17 12 13 10 10 11 9
4 4 2 1 4 5 4 4 4 5 1 3 4 1 4 14 16 20 18 20 20 13 8 7 10 11 12 9 8 10 15 15 19 20 20 21 19 16 16 13 12 9 7 6
3 4 3 7 7 8 7 4 4 6 3 2 4 3 8 15 19 17 23 21 16 10 5 7 12 10 10 11 8 11 14 17 16 19 16 18 19 19 16 14 13 11 8 6
4 2 5 5 4 3 8 10 5 7 5 0 1 8 5 6 6 18 21 18 12 6 6 8 9 9 9 10 10 11 14 17 18 16 18 16 15 17 18 18 16 11 8 8
4 2 4 8 17 18 15 13 12 9 5 5 3 5 8 8 13 20 20 17 12 8 7 6 8 9 7 8 9 11 14 17 16 17 16 16 17 18 18 18 20 15 11 9
3 1 2 8 16 19 17 15 12 13 9 7 6 3 7 12 17 22 19 13 11 8 5 5 7 6 5 8 8 9 12 14 14 15 16 16 14 16 18 21 23 23 16 16
3 3 2 4 3 7 10 9 11 10 9 2 5 2 12 10 16 18 14 11 8 3 3 3 6 4 5 7 8 9 9 11 12 14 16 18 18 16 16 20 20 22 16 13
3 2 2 3 4 5 4 5 13 13 6 7 8 6 13 17 17 15 8 6 5 4 3 4 4 3 5 6 8 7 8 9 10 15 14 15 16 15 15 15 16 16 16 16
21 2 4 4 4 2 10 2 4 2 5 5 10 14 18 21 17 9 5 5 4 2 4 5 3 3 6 8 7 7 7 8 7 13 12 14 16 16 19 17 16 16 16 18
5 5 5 2 5 3 4 10 16 10 3 4 13 14 19 14 2 4 6 1 3 4 6 5 6 5 6 8 8 6 8 9 9 12 12 12 12 13 17 17 13 13 15 17
5 4 6 3 4 3 6 16 5 5 4 5 7 6 5 3 3 10 5 3 2 4 4 3 4 6 8 7 6 7 6 9 9 12 11 10 11 12 11 8 9 12 10 11
4 3 3 3 4 2 9 7 5 6 8 8 6 4 8 11 10 8 5 5 2 1 1 2 1 4 6 6 5 4 7 6 6 4 5 9 10 11 14 9 5 6 5 5
4 0 3 3 4 6 10 16 13 7 7 4 3 8 9 12 8 6 6 4 1 1 1 2 1 3 5 2 4 3 5 5 5 5 6 7 7 11 13 15 8 4 2 4
7 11 3 4 3 12 11 9 6 4 3 1 4 6 7 7 3 3 4 2 2 4 1 2 1 2 3 2 4 5 6 3 3 2 4 7 9 10 10 9 10 11 12 8
3 5 4 3 6 9 7 4 7 7 4 2 2 1 3 1 2 2 2 1 1 4 3 2 2 2 1 3 4 5 3 3 3 3 4 7 6 9 16 17 9 7 9 15
10 4 2 4 3 3 3 6 10 6 3 2 2 5 4 3 2 3 3 2 4 4 7 6 4 3 3 4 3 3 2 3 1 1 6 9 6 12 17 17 8 8 6 9
Wind_Direction
311 80 238 257 217 162 150 114 208 75 99 68 94 116 120 145 179 150 138 144 151 141 121 102 80 356 284 309 8 6 2 2 356 348 348 351 343 322 320 309 315 294 295 305
7 242 241 259 93 113 116 97 93 60 87 98 116 118 137 170 162 160 155 158 154 136 112 129 251 234 312 10 11 344 341 349 345 347 349 348 338 329 317 307 316 303 300 301
206 245 242 102 96 107 125 131 52 129 90 124 125 88 100 76 115 141 166 168 148 134 151 176 12 299 322 270 349 353 342 334 339 345 343 345 339 336 327 323 324 329 318 306
103 51 78 60 39 80 41 326 37 127 166 185 211 120 95 132 41 120 101 139 149 137 141 205 343 25 16 341 346 334 331 343 346 347 341 338 341 344 338 330 327 325 313 302
315 46 54 65 66 93 162 346 32 58 71 116 38 90 96 198 92 116 127 153 164 142 179 24 48 46 17 319 308 338 336 347 355 349 342 349 350 341 331 323 316 301 295 291
80 219 84 180 89 47 119 39 35 45 85 55 321 115 313 243 155 156 172 187 153 156 210 175 129 205 356 68 341 345 345 349 341 335 355 352 349 346 340 336 334 335 323 294
342 334 327 50 24 22 56 51 3 4 29 81 297 54 214 226 188 171 177 177 178 157 124 124 130 60 15 358 348 340 337 353 4 360 353 347 339 334 344 350 345 339 340 348
57 2 14 1 27 119 77 125 140 265 189 175 16 83 211 157 127 154 160 158 147 120 122 109 92 56 13 354 349 1 22 12 11 3 356 3 9 5 358 352 350 355 350 27
58 342 359 18 32 65 335 27 175 128 65 85 119 89 121 117 131 140 131 144 127 133 129 116 82 25 3 358 18 22 17 17 9 4 4 6 13 16 8 14 15 25 28 58
348 336 14 350 55 31 100 238 28 10 86 96 68 292 188 156 171 141 149 137 139 132 126 112 33 14 16 24 29 30 22 16 7 6 12 10 8 9 15 28 38 33 72 70
41 82 315 42 13 100 21 26 57 108 79 141 150 260 229 178 161 158 154 146 144 145 132 91 40 24 32 35 40 34 23 11 16 17 17 20 24 21 16 30 46 41 61 64
13 126 77 186 303 111 94 105 104 114 42 63 112 6 141 135 161 153 150 142 148 139 121 64 27 31 42 41 44 30 23 25 21 11 18 20 27 29 34 34 33 34 47 45
334 9 40 344 355 0 72 22 108 99 91 353 113 176 125 137 161 166 148 146 143 135 87 41 38 49 34 31 41 29 26 21 24 23 15 20 33 35 33 30 32 39 41 45
101 77 149 173 227 140 63 47 44 101 77 46 78 130 137 177 145 135 147 144 132 113 81 55 50 39 35 52 42 32 27 18 24 24 25 28 20 24 25 26 28 29 41 46
90 62 46 59 82 72 63 73 64 76 156 97 161 132 195 185 145 151 146 136 127 121 87 48 38 38 57 54 38 39 30 23 23 25 20 22 36 42 35 32 34 39 46 45
31 317 36 64 78 69 65 62 73 77 71 84 115 76 119 125 120 134 142 127 119 113 79 36 34 40 67 40 29 21 33 21 22 27 32 40 40 50 49 50 43 45 58 52
86 109 72 128 106 56 44 66 77 64 40 85 63 122 122 90 113 127 126 121 110 83 61 64 30 94 54 30 20 27 21 21 30 50 51 54 61 57 48 33 39 41 52 51
10 75 87 120 48 59 300 51 97 84 49 54 91 102 128 125 123 127 122 113 136 126 80 24 40 105 25 22 14 20 25 43 64 54 53 56 48 41 32 37 34 46 62 73
358 97 59 88 57 357 267 331 305 173 20 48 112 129 134 131 121 119 123 114 112 73 45 29 75 63 17 5 23 21 46 74 64 50 59 50 54 43 42 54 64 71 77 81
303 65 98 124 113 165 267 309 330 136 55 28 108 152 164 169 79 208 168 161 117 49 53 55 73 36 24 28 38 35 75 74 54 55 62 60 54 54 69 61 62 71 70 73
343 344 67 11 95 60 309 327 80 80 231 108 100 126 162 168 197 166 177 159 99 47 42 54 35 21 23 23 36 48 69 90 61 84 74 57 56 46 41 42 66 73 72 69
26 14 25 57 75 36 341 348 81 155 128 100 72 112 131 140 152 164 176 174 144 334 104 354 291 8 14 10 87 80 100 83 76 94 73 60 35 27 25 26 34 61 64 63
26 354 125 127 188 126 101 116 113 104 95 78 86 161 144 160 170 179 184 188 244 202 98 358 88 11 5 70 125 133 91 86 51 93 80 58 35 13 11 23 38 22 339 359
352 47 76 67 58 127 123 117 98 83 124 103 59 149 171 154 175 201 193 258 143 168 151 336 111 21 38 74 115 120 126 43 76 83 45 32 15 2 2 10 22 49 47 18
347 28 26 38 111 116 142 121 143 144 136 120 145 209 211 198 188 219 208 249 174 196 211 259 300 295 86 106 124 125 118 105 30 51 17 12 21 348 348 340 320 344 29 36
7 349 106 218 173 146 193 190 178 172 174 285 242 200 226 288 247 249 229 216 229 239 261 270 261 222 176 162 155 156 101 162 288 354 348 346 3 356 358 359 327 294 326 29